DLH1MK EDDM-EDDH

Flight info

Callsign DLH1MK
Flight time 0h 58m
Altitude 36000
Route INPUD2N INPUD Y102 UPALA M726 NARUS DCT ABGUS DCT DIRBO/N0377F230 T902 RARUP RARUP6A
Aircraft A321/M-SDE3FGHIRWY/LB1

Departure

Time 2026-05-07 08:11
Airport Munich Airport (EDDM)

Arrival

Time 2026-05-07 09:10
Airport Hamburg Helmut Schmidt Airport (EDDH)
Time Latitude Longitude Altitude Speed Heading
2026-05-07 08:03 48.35184 11.80781 1464 ft 0 kts 263°
2026-05-07 08:03 48.35181 11.80745 1464 ft 10 kts 264°
2026-05-07 08:03 48.35170 11.80603 1464 ft 17 kts 263°
2026-05-07 08:03 48.35156 11.80418 1462 ft 17 kts 264°
2026-05-07 08:04 48.35144 11.80254 1462 ft 11 kts 270°
2026-05-07 08:04 48.35200 11.80186 1462 ft 13 kts 352°
2026-05-07 08:04 48.35307 11.80169 1462 ft 15 kts 354°
2026-05-07 08:04 48.35417 11.80139 1462 ft 18 kts 350°
2026-05-07 08:05 48.35554 11.80115 1462 ft 19 kts 354°
2026-05-07 08:05 48.35683 11.80089 1462 ft 18 kts 347°
2026-05-07 08:05 48.35801 11.80056 1459 ft 15 kts 333°
2026-05-07 08:05 48.35824 11.79916 1461 ft 15 kts 262°
2026-05-07 08:06 48.35808 11.79705 1462 ft 21 kts 263°
2026-05-07 08:06 48.35817 11.79539 1465 ft 13 kts 321°
2026-05-07 08:06 48.35914 11.79511 1464 ft 17 kts 353°
2026-05-07 08:06 48.36044 11.79488 1461 ft 19 kts 354°
2026-05-07 08:07 48.36144 11.79471 1459 ft 16 kts 352°
2026-05-07 08:07 48.36219 11.79534 1457 ft 15 kts 77°
2026-05-07 08:07 48.36234 11.79722 1456 ft 19 kts 83°
2026-05-07 08:07 48.36251 11.79950 1452 ft 25 kts 84°
2026-05-07 08:08 48.36274 11.80245 1450 ft 30 kts 84°
2026-05-07 08:08 48.36296 11.80552 1449 ft 28 kts 83°
2026-05-07 08:08 48.36319 11.80836 1446 ft 27 kts 83°
2026-05-07 08:08 48.36340 11.81111 1446 ft 25 kts 82°
2026-05-07 08:09 48.36360 11.81367 1446 ft 23 kts 85°
2026-05-07 08:09 48.36378 11.81602 1446 ft 22 kts 83°
2026-05-07 08:09 48.36396 11.81825 1446 ft 20 kts 83°
2026-05-07 08:09 48.36408 11.81977 1446 ft 12 kts 52°
2026-05-07 08:10 48.36498 11.81994 1446 ft 16 kts 352°
2026-05-07 08:10 48.36610 11.81974 1446 ft 13 kts 351°
2026-05-07 08:10 48.36666 11.81909 1446 ft 9 kts 286°
2026-05-07 08:10 48.36667 11.81846 1446 ft 6 kts 264°
2026-05-07 08:11 48.36635 11.81427 1446 ft 75 kts 264°
2026-05-07 08:11 48.36550 11.80322 1450 ft 136 kts 263°
2026-05-07 08:11 48.36433 11.78737 1726 ft 161 kts 265°
2026-05-07 08:11 48.36321 11.77054 2349 ft 163 kts 266°
2026-05-07 08:12 48.36200 11.75406 3044 ft 162 kts 263°
2026-05-07 08:12 48.36047 11.73749 3465 ft 167 kts 262°
2026-05-07 08:12 48.35863 11.71955 3732 ft 180 kts 262°
2026-05-07 08:12 48.35672 11.70028 4039 ft 192 kts 264°
2026-05-07 08:13 48.35899 11.68016 4298 ft 209 kts 294°
2026-05-07 08:13 48.36863 11.66218 4499 ft 236 kts 319°
2026-05-07 08:13 48.38419 11.65216 4866 ft 258 kts 344°
2026-05-07 08:13 48.40239 11.64692 5346 ft 270 kts 345°
2026-05-07 08:14 48.42070 11.64169 6019 ft 274 kts 345°
2026-05-07 08:14 48.43950 11.63598 6743 ft 277 kts 344°
2026-05-07 08:14 48.45831 11.63028 7446 ft 280 kts 345°
2026-05-07 08:14 48.47759 11.62462 8160 ft 283 kts 345°
2026-05-07 08:15 48.49699 11.61876 8882 ft 287 kts 345°
2026-05-07 08:15 48.51654 11.61296 9557 ft 292 kts 346°
2026-05-07 08:15 48.53654 11.60725 10222 ft 296 kts 346°
2026-05-07 08:15 48.55664 11.60118 10919 ft 298 kts 343°
2026-05-07 08:16 48.57657 11.59307 11592 ft 299 kts 339°
2026-05-07 08:16 48.59661 11.58235 11969 ft 312 kts 336°
2026-05-07 08:16 48.61721 11.57040 12333 ft 324 kts 336°
2026-05-07 08:16 48.63840 11.55802 12937 ft 328 kts 336°
2026-05-07 08:17 48.65942 11.54580 13583 ft 330 kts 336°
2026-05-07 08:17 48.68101 11.53326 14218 ft 333 kts 336°
2026-05-07 08:17 48.70255 11.52077 14820 ft 336 kts 336°
2026-05-07 08:17 48.72438 11.50811 15417 ft 339 kts 336°
2026-05-07 08:18 48.74667 11.49519 16008 ft 343 kts 336°
2026-05-07 08:18 48.76876 11.48237 16570 ft 346 kts 336°
2026-05-07 08:18 48.79146 11.46919 17130 ft 349 kts 336°
2026-05-07 08:18 48.81405 11.45607 17669 ft 353 kts 336°
2026-05-07 08:19 48.83703 11.44271 18202 ft 356 kts 336°
2026-05-07 08:19 48.86036 11.42912 18737 ft 359 kts 336°
2026-05-07 08:19 48.88349 11.41562 19278 ft 362 kts 337°
2026-05-07 08:19 48.90722 11.40176 19819 ft 364 kts 337°
2026-05-07 08:20 48.93071 11.38805 20346 ft 366 kts 337°
2026-05-07 08:20 48.95450 11.37412 20879 ft 368 kts 337°
2026-05-07 08:20 48.97821 11.36022 21420 ft 369 kts 338°
2026-05-07 08:20 49.00220 11.34618 21943 ft 371 kts 337°
2026-05-07 08:21 49.02657 11.33190 22447 ft 373 kts 337°
2026-05-07 08:21 49.05072 11.31771 22933 ft 375 kts 337°
2026-05-07 08:21 49.07500 11.30344 23417 ft 376 kts 338°
2026-05-07 08:21 49.09936 11.28912 23888 ft 377 kts 338°
2026-05-07 08:22 49.12410 11.27457 24346 ft 379 kts 338°
2026-05-07 08:22 49.14849 11.26022 24727 ft 382 kts 338°
2026-05-07 08:22 49.17336 11.24554 24989 ft 388 kts 338°
2026-05-07 08:22 49.19913 11.23188 25300 ft 393 kts 343°
2026-05-07 08:23 49.22601 11.22363 25675 ft 396 kts 352°
2026-05-07 08:23 49.25367 11.22104 26012 ft 400 kts 358°
2026-05-07 08:23 49.28130 11.22105 26332 ft 403 kts 359°
2026-05-07 08:23 49.30921 11.22154 26607 ft 407 kts 360°
2026-05-07 08:24 49.33781 11.22203 26865 ft 412 kts 359°
2026-05-07 08:24 49.36652 11.22243 27180 ft 415 kts 360°
2026-05-07 08:24 49.39540 11.22274 27501 ft 417 kts 359°
2026-05-07 08:24 49.42448 11.22300 27804 ft 420 kts 359°
2026-05-07 08:25 49.45386 11.22325 28098 ft 423 kts 359°
2026-05-07 08:25 49.48323 11.22352 28391 ft 425 kts 359°
2026-05-07 08:25 49.51271 11.22377 28660 ft 428 kts 359°
2026-05-07 08:25 49.54244 11.22401 28941 ft 430 kts 359°
2026-05-07 08:26 49.60248 11.22425 29501 ft 435 kts 359°
2026-05-07 08:26 49.63278 11.22429 29769 ft 437 kts 359°
2026-05-07 08:26 49.66312 11.22434 30061 ft 438 kts 359°
2026-05-07 08:27 49.69384 11.22438 30319 ft 440 kts 359°
2026-05-07 08:27 49.72430 11.22444 30573 ft 442 kts 359°
2026-05-07 08:27 49.75503 11.22451 30817 ft 444 kts 359°
2026-05-07 08:27 49.78565 11.22460 31028 ft 446 kts 359°
2026-05-07 08:28 49.81668 11.22476 31225 ft 448 kts 359°
2026-05-07 08:28 49.84812 11.22495 31431 ft 449 kts 359°
2026-05-07 08:28 49.87906 11.22515 31676 ft 448 kts 359°
2026-05-07 08:28 49.91036 11.22534 31938 ft 448 kts 359°
2026-05-07 08:29 49.94098 11.22553 32172 ft 447 kts 359°
2026-05-07 08:29 49.97214 11.22572 32387 ft 448 kts 359°
2026-05-07 08:29 50.00341 11.22589 32595 ft 448 kts 359°
2026-05-07 08:29 50.03439 11.22607 32820 ft 448 kts 359°
2026-05-07 08:30 50.06551 11.22626 33046 ft 448 kts 359°
2026-05-07 08:30 50.09667 11.22644 33252 ft 448 kts 359°
2026-05-07 08:30 50.12763 11.22662 33453 ft 448 kts 359°
2026-05-07 08:30 50.15855 11.22681 33644 ft 448 kts 359°
2026-05-07 08:31 50.18954 11.22698 33853 ft 448 kts 359°
2026-05-07 08:31 50.22087 11.22716 34054 ft 448 kts 359°
2026-05-07 08:31 50.25193 11.22734 34257 ft 448 kts 359°
2026-05-07 08:31 50.28283 11.22752 34436 ft 448 kts 359°
2026-05-07 08:32 50.31412 11.22771 34599 ft 449 kts 359°
2026-05-07 08:32 50.34550 11.22771 34769 ft 450 kts 358°
2026-05-07 08:32 50.37654 11.22551 34930 ft 450 kts 354°
2026-05-07 08:32 50.40781 11.22132 35087 ft 451 kts 353°
2026-05-07 08:33 50.43899 11.21657 35238 ft 452 kts 353°
2026-05-07 08:33 50.47018 11.21171 35387 ft 453 kts 353°
2026-05-07 08:33 50.50129 11.20688 35544 ft 453 kts 353°
2026-05-07 08:33 50.53248 11.20210 35698 ft 454 kts 353°
2026-05-07 08:34 50.56422 11.19727 35850 ft 455 kts 353°
2026-05-07 08:34 50.59531 11.19255 35913 ft 456 kts 353°
2026-05-07 08:34 50.65859 11.18295 35926 ft 456 kts 353°
2026-05-07 08:35 50.72134 11.17527 35937 ft 456 kts 355°
2026-05-07 08:35 50.78473 11.16898 35937 ft 455 kts 355°
2026-05-07 08:36 50.84769 11.16259 35940 ft 455 kts 355°
2026-05-07 08:36 50.91063 11.15604 35948 ft 455 kts 355°
2026-05-07 08:37 50.97347 11.14944 35948 ft 455 kts 355°
2026-05-07 08:37 51.03643 11.14279 35957 ft 454 kts 355°
2026-05-07 08:38 51.09945 11.13613 35961 ft 455 kts 355°
2026-05-07 08:38 51.16260 11.12944 35962 ft 455 kts 355°
2026-05-07 08:39 51.22531 11.12275 35969 ft 454 kts 355°
2026-05-07 08:39 51.28808 11.11604 35967 ft 454 kts 355°
2026-05-07 08:40 51.35081 11.10932 35964 ft 453 kts 355°
2026-05-07 08:40 51.41360 11.10259 35968 ft 454 kts 355°
2026-05-07 08:41 51.47654 11.09581 35964 ft 453 kts 355°
2026-05-07 08:41 51.53905 11.08906 35976 ft 453 kts 355°
2026-05-07 08:42 51.60212 11.08224 35979 ft 453 kts 355°
2026-05-07 08:42 51.66462 11.07545 35977 ft 453 kts 355°
2026-05-07 08:43 51.72716 11.06864 35982 ft 453 kts 355°
2026-05-07 08:43 51.79011 11.06177 35982 ft 453 kts 355°
2026-05-07 08:44 51.85280 11.05490 35983 ft 452 kts 354°
2026-05-07 08:44 51.91505 11.04359 35998 ft 451 kts 351°
2026-05-07 08:45 51.97671 11.03027 35995 ft 451 kts 351°
2026-05-07 08:45 52.03895 11.01681 36006 ft 451 kts 351°
2026-05-07 08:46 52.10107 11.00345 35910 ft 452 kts 351°
2026-05-07 08:46 52.13197 10.99682 35718 ft 450 kts 351°
2026-05-07 08:46 52.16287 10.99018 35524 ft 448 kts 351°
2026-05-07 08:47 52.19369 10.98354 35326 ft 446 kts 351°
2026-05-07 08:47 52.22424 10.97697 35134 ft 444 kts 351°
2026-05-07 08:47 52.25483 10.97038 34939 ft 441 kts 351°
2026-05-07 08:47 52.28484 10.96390 34697 ft 440 kts 351°
2026-05-07 08:48 52.31504 10.95736 34346 ft 440 kts 351°
2026-05-07 08:48 52.34539 10.95077 33882 ft 441 kts 352°
2026-05-07 08:48 52.37588 10.94413 33331 ft 444 kts 352°
2026-05-07 08:48 52.40650 10.93746 32650 ft 448 kts 352°
2026-05-07 08:49 52.43727 10.93076 31952 ft 450 kts 352°
2026-05-07 08:49 52.46814 10.92404 31246 ft 452 kts 352°
2026-05-07 08:49 52.49913 10.91730 30631 ft 449 kts 352°
2026-05-07 08:49 52.52979 10.91064 30128 ft 443 kts 352°
2026-05-07 08:50 52.55984 10.90409 29675 ft 436 kts 352°
2026-05-07 08:50 52.58955 10.89758 29201 ft 430 kts 352°
2026-05-07 08:50 52.61888 10.89115 28726 ft 424 kts 352°
2026-05-07 08:50 52.64824 10.88470 28239 ft 419 kts 352°
2026-05-07 08:51 52.67672 10.87843 27779 ft 414 kts 352°
2026-05-07 08:51 52.70494 10.87222 27302 ft 410 kts 352°
2026-05-07 08:51 52.73294 10.86604 26822 ft 406 kts 352°
2026-05-07 08:51 52.76080 10.85989 26342 ft 402 kts 352°
2026-05-07 08:52 52.78818 10.85385 25873 ft 398 kts 351°
2026-05-07 08:52 52.81544 10.84781 25420 ft 394 kts 351°
2026-05-07 08:52 52.84248 10.84187 24965 ft 390 kts 352°
2026-05-07 08:52 52.86904 10.83641 24513 ft 386 kts 352°
2026-05-07 08:53 52.89584 10.83102 24053 ft 383 kts 352°
2026-05-07 08:53 52.92181 10.82578 23620 ft 380 kts 352°
2026-05-07 08:53 52.94797 10.82048 23197 ft 377 kts 352°
2026-05-07 08:53 52.97401 10.81519 22767 ft 374 kts 352°
2026-05-07 08:54 52.99954 10.80999 22348 ft 372 kts 352°
2026-05-07 08:54 53.02524 10.80476 21912 ft 369 kts 352°
2026-05-07 08:54 53.05068 10.79956 21483 ft 367 kts 352°
2026-05-07 08:54 53.07585 10.79441 21051 ft 365 kts 352°
2026-05-07 08:55 53.10066 10.78932 20626 ft 364 kts 352°
2026-05-07 08:55 53.12595 10.78413 20187 ft 362 kts 352°
2026-05-07 08:55 53.15079 10.77835 19811 ft 363 kts 346°
2026-05-07 08:55 53.17361 10.76133 19535 ft 363 kts 321°
2026-05-07 08:56 53.18943 10.73003 19286 ft 359 kts 296°
2026-05-07 08:56 53.19734 10.69068 19051 ft 357 kts 283°
2026-05-07 08:56 53.20341 10.65104 18794 ft 355 kts 284°
2026-05-07 08:56 53.20976 10.61154 18541 ft 354 kts 285°
2026-05-07 08:57 53.21640 10.57210 18291 ft 353 kts 285°
2026-05-07 08:57 53.22323 10.53276 17892 ft 353 kts 286°
2026-05-07 08:57 53.23007 10.49406 17367 ft 352 kts 286°
2026-05-07 08:57 53.23701 10.45521 16823 ft 349 kts 287°
2026-05-07 08:58 53.24392 10.41677 16245 ft 345 kts 287°
2026-05-07 08:58 53.25077 10.37876 15661 ft 341 kts 287°
2026-05-07 08:58 53.25751 10.34129 15090 ft 337 kts 286°
2026-05-07 08:58 53.26417 10.30425 14505 ft 333 kts 287°
2026-05-07 08:59 53.27073 10.26773 13922 ft 330 kts 287°
2026-05-07 08:59 53.27730 10.23104 13349 ft 327 kts 287°
2026-05-07 08:59 53.28377 10.19487 12760 ft 327 kts 287°
2026-05-07 08:59 53.29024 10.15871 12186 ft 329 kts 287°
2026-05-07 09:00 53.29674 10.12237 11608 ft 328 kts 287°
2026-05-07 09:00 53.30326 10.08574 11016 ft 327 kts 287°
2026-05-07 09:00 53.30971 10.04931 10428 ft 326 kts 287°
2026-05-07 09:00 53.31592 10.01395 9849 ft 317 kts 287°
2026-05-07 09:01 53.32200 9.97893 9310 ft 306 kts 287°
2026-05-07 09:01 53.32774 9.94537 8795 ft 296 kts 287°
2026-05-07 09:01 53.33320 9.91290 8285 ft 287 kts 287°
2026-05-07 09:01 53.33842 9.88151 7773 ft 281 kts 289°
2026-05-07 09:02 53.34676 9.85306 7241 ft 272 kts 313°
2026-05-07 09:02 53.36006 9.83134 6733 ft 265 kts 322°
2026-05-07 09:02 53.37399 9.81189 6229 ft 260 kts 324°
2026-05-07 09:02 53.38799 9.79284 5718 ft 257 kts 324°
2026-05-07 09:03 53.40179 9.77418 5205 ft 253 kts 324°
2026-05-07 09:03 53.41518 9.75608 4702 ft 250 kts 324°
2026-05-07 09:03 53.42874 9.73775 4185 ft 248 kts 324°
2026-05-07 09:03 53.44211 9.72002 3669 ft 245 kts 329°
2026-05-07 09:04 53.45755 9.71017 3174 ft 234 kts 359°
2026-05-07 09:04 53.47322 9.71021 3001 ft 222 kts
2026-05-07 09:04 53.48775 9.71372 2983 ft 201 kts 25°
2026-05-07 09:04 53.49868 9.72554 3053 ft 177 kts 43°
2026-05-07 09:05 53.50693 9.73937 3006 ft 159 kts 49°
2026-05-07 09:05 53.51447 9.75332 3024 ft 163 kts 50°
2026-05-07 09:05 53.52184 9.76766 3008 ft 163 kts 51°
2026-05-07 09:05 53.52922 9.78245 2842 ft 164 kts 52°
2026-05-07 09:06 53.53643 9.79712 2622 ft 163 kts 52°
2026-05-07 09:06 53.54355 9.81165 2405 ft 162 kts 52°
2026-05-07 09:06 53.55067 9.82622 2190 ft 161 kts 52°
2026-05-07 09:06 53.55784 9.84087 1969 ft 160 kts 52°
2026-05-07 09:07 53.56491 9.85529 1756 ft 160 kts 52°
2026-05-07 09:07 53.57173 9.86917 1533 ft 149 kts 52°
2026-05-07 09:07 53.57809 9.88210 1283 ft 136 kts 51°
2026-05-07 09:07 53.58386 9.89409 1084 ft 131 kts 49°
2026-05-07 09:08 53.58964 9.90595 948 ft 131 kts 50°
2026-05-07 09:08 53.59550 9.91773 798 ft 131 kts 50°
2026-05-07 09:08 53.60140 9.92948 616 ft 132 kts 51°
2026-05-07 09:08 53.60727 9.94143 430 ft 134 kts 52°
2026-05-07 09:09 53.61316 9.95346 270 ft 133 kts 50°
2026-05-07 09:09 53.61899 9.96524 108 ft 132 kts 50°
2026-05-07 09:09 53.62481 9.97695 29 ft 118 kts 50°
2026-05-07 09:09 53.62893 9.98532 38 ft 69 kts 50°
2026-05-07 09:10 53.63104 9.98960 36 ft 35 kts 50°
2026-05-07 09:10 53.63256 9.99269 33 ft 28 kts 52°
2026-05-07 09:10 53.63291 9.99456 31 ft 14 kts 88°
2026-05-07 09:10 53.63281 9.99607 31 ft 9 kts 99°
2026-05-07 09:11 53.63274 9.99675 31 ft 5 kts 100°
2026-05-07 09:11 53.63286 9.99779 30 ft 14 kts 49°
2026-05-07 09:11 53.63358 9.99925 32 ft 16 kts 50°
2026-05-07 09:11 53.63420 10.00053 35 ft 9 kts 60°
2026-05-07 09:12 53.63413 10.00145 39 ft 10 kts 143°
2026-05-07 09:12 53.63311 10.00168 38 ft 17 kts 176°
2026-05-07 09:12 53.63193 10.00181 36 ft 11 kts 175°
2026-05-07 09:12 53.63163 10.00226 37 ft 6 kts 93°
2026-05-07 09:13 53.63167 10.00336 41 ft 6 kts 86°
2026-05-07 09:13 53.63168 10.00353 42 ft 0 kts 86°